Regional Weather Roundup
Issued by NWS

Home | Current Version | Previous Version | Graphics & Text | Print | Product List | Glossary On
Versions: 1 2 3 4 5 6 7 8 9 10 11 12 13 14 15 16 17 18 19 20 21 22 23 24 25 26 27 28 29 30 31 32 33 34 35 36 37 38 39 40 41 42 43 44 45 46 47 48 49 50
000
ASUS43 KDMX 012307
RWRIA

WEATHER ROUNDUP FOR IOWA
NATIONAL WEATHER SERVICE DES MOINES IA
600 PM CDT WED APR 01 2015

NOTE: "FAIR" INDICATES FEW OR NO CLOUDS BELOW 12,000 FEET WITH NO
SIGNIFICANT WEATHER AND/OR OBSTRUCTIONS TO VISIBILITY.

* - THESE STATIONS ARE NOT NWS STATIONS...THUS NOT UNDER NWS
QUALITY CONTROL.  THEY ALSO DO NOT REPORT WEATHER SUCH
AS PRECIPITATION OR FOG.

IAZ001>003-012>014-020>022-031>034-043>046-020000-
   NORTHWEST IOWA

CITY           SKY/WX    TMP DP  RH WIND       PRES   REMARKS
CARROLL *      SUNNY     81  48  32 S32G40    29.57F HX  80
CHEROKEE *     MOSUNNY   81  45  28 S20G26    29.53S
DENISON *      SUNNY     81  45  28 S26G37    29.54F
LE MARS *      MOSUNNY   81  43  26 S23G33    29.49F
ORANGE CITY *  PTSUNNY   82  37  20 SW24G35   29.50F HX  80
SHELDON *      SUNNY     81  45  28 S26G39    29.48F
SIOUX CITY     PTSUNNY   82  44  26 S23G31    29.50F HX  80
SPENCER        MOSUNNY   81  47  30 S21G28    29.52F HX  80
STORM LAKE *   SUNNY     79  46  31 S28G36    29.54F
$$

IAZ055>058-069>071-079>083-090>094-020000-
   SOUTHWEST IOWA

CITY           SKY/WX    TMP DP  RH WIND       PRES   REMARKS
ATLANTIC *     SUNNY     81  50  34 S25G37    29.59F HX  80
AUDUBON *      SUNNY     79  46  31 S23G31    29.60F
CLARINDA *     MOSUNNY   79  54  41 S22G29    29.63F
COUNCIL BLFS * SUNNY     81  48  32 S24G35    29.59R HX  80
CRESTON *      SUNNY     77  52  41 S30G36    29.66S
HARLAN  *      SUNNY     81  46  30 S23G37    29.61S HX  80
LAMONI         SUNNY     78  50  37 S21G33    29.69F
RED OAK *      SUNNY     81  52  36 S30G38    29.60F HX  80
SHENANDOAH *   SUNNY     81  52  36 S25G33    29.61S HX  80
$$

IAZ047>049-059>061-072>074-084-020000-
   CENTRAL IOWA

CITY           SKY/WX    TMP DP  RH WIND       PRES   REMARKS
AMES           SUNNY     78  42  27 S24G37    29.63F
ANKENY *       SUNNY     79  45  29 S21G37    29.65S
CHARITON *     SUNNY     77  45  31 S26G36    29.70S
DES MOINES     MOSUNNY   80  44  27 S24G39    29.66F
GRINNELL*      SUNNY     77  39  25 S29G35    29.70S
KNOXVILLE *    SUNNY     77  41  27 S24G31    29.67F
MARSHALLTOWN   SUNNY     78  38  23 S31G37    29.65F
PELLA *        SUNNY     79  46  31 S21G33    29.70F
PERRY *          N/A     79  46  31 S31G38    29.60F
$$

IAZ004>006-015-016-023>025-035-036-020000-
   NORTH CENTRAL IOWA

CITY           SKY/WX    TMP DP  RH WIND       PRES   REMARKS
ALGONA *       SUNNY     79  46  31 S31G41    29.56F
CLARION *      SUNNY     79  39  24 S30G39    29.59S
ESTHERVILLE    MOSUNNY   79  45  29 S32G43    29.51F
FORT DODGE *   SUNNY     79  46  31 S30G38    29.59F
MASON CITY     MOSUNNY   78  37  22 S25G36    29.61S
FOREST CITY *  SUNNY     77  36  22 S25G35    29.58F
IOWA FALLS *     N/A     77  37  24 S26G37    29.63F
$$

IAZ007>011-017>019-026>030-037>042-050>054-066-020000-
   NORTHEAST IOWA

CITY           SKY/WX    TMP DP  RH WIND       PRES   REMARKS
CEDAR RAPIDS   SUNNY     76  33  21 S28G40    29.72F
CHARLES CITY * SUNNY     75  36  23 S29G36    29.62F
CLINTON *      SUNNY     75  36  23 S26G35    29.81S
DECORAH *      SUNNY     75  34  22 S17G30    29.65F
DUBUQUE        SUNNY     75  33  21 S28G36    29.74F
MONTICELLO *   SUNNY     75  34  22 S22G36    29.74S
OELWEIN *      SUNNY     75  34  22 S30G40    29.68F
WATERLOO       SUNNY     77  33  20 S24G37    29.65F
$$

IAZ064-065-067-068-078-020000-
   EAST CENTRAL IOWA

CITY           SKY/WX    TMP DP  RH WIND       PRES   REMARKS
DAVENPORT      SUNNY     75  32  20 S22G38    29.79F
IOWA CITY      SUNNY     76  34  21 S22G33    29.77S
MT. PLEASANT * MOSUNNY   73  34  23 S18G26    29.78F
MUSCATINE *    SUNNY     77  34  20 S26G33    29.77S
QUAD CITIES    SUNNY     75  33  21 S18G31    29.79S
$$

IAZ062-063-075>077-085>089-095>099-020000-
   SOUTHEAST IOWA

CITY           SKY/WX    TMP DP  RH WIND       PRES   REMARKS
BURLINGTON     MOSUNNY   73  35  25 S22G32    29.80F
FAIRFIELD *    SUNNY     75  37  25 S24G33    29.76S
FORT MADISON * SUNNY     75  37  25 S17G25    29.81F
KEOKUK *       SUNNY     75  37  25 S14G26    29.80S
OSKALOOSA *      N/A     75  39  27 S25G38    29.73F
CENTERVILLE *  SUNNY     75  45  33 S16G32    29.75S
OTTUMWA        MOSUNNY   76  41  28 S28G39    29.73F
WASHINGTON *   SUNNY     77  36  22 S26G36    29.75F
$$

ABBREVIATIONS USED IN REMARKS
   TC - TEMPERATURES IN CELSIUS
  WCI - WIND CHILL INDEX
   HX - HEAT INDEX
  VSB - VISIBILITY
$$



USA.gov is the U.S. government's official web portal to all federal, state and local government web resources and services.